AAL127 KOKC-KSTL

Flight info

Callsign AAL127
Flight time 1h 2m
Altitude 33000
Route TRUPR3 DRLER EOS SGF KAYLA3
Aircraft A320/M-SDE3FGHIRWY/LB1

Departure

Time 2026-04-30 19:38
Airport OKC Will Rogers World Airport (KOKC)

Arrival

Time 2026-04-30 20:40
Airport St. Louis Lambert International Airport (KSTL)
Time Latitude Longitude Altitude Speed Heading
2026-04-30 19:15 35.39485 -97.59848 1300 ft 0 kts
2026-04-30 19:30 35.39480 -97.59848 1299 ft 3 kts
2026-04-30 19:30 35.39445 -97.59845 1298 ft 2 kts 342°
2026-04-30 19:31 35.39424 -97.59858 1298 ft 0 kts 102°
2026-04-30 19:32 35.39421 -97.59847 1298 ft 2 kts 103°
2026-04-30 19:32 35.39420 -97.59840 1298 ft 0 kts 103°
2026-04-30 19:33 35.39418 -97.59787 1299 ft 11 kts 89°
2026-04-30 19:33 35.39389 -97.59669 1300 ft 18 kts 102°
2026-04-30 19:33 35.39343 -97.59537 1300 ft 18 kts 168°
2026-04-30 19:34 35.39230 -97.59513 1297 ft 16 kts 131°
2026-04-30 19:34 35.39218 -97.59378 1297 ft 17 kts 90°
2026-04-30 19:34 35.39198 -97.59076 1294 ft 18 kts 131°
2026-04-30 19:35 35.39084 -97.59061 1294 ft 16 kts 180°
2026-04-30 19:35 35.38970 -97.59060 1296 ft 19 kts 179°
2026-04-30 19:35 35.38810 -97.59059 1293 ft 26 kts 182°
2026-04-30 19:35 35.38624 -97.59063 1295 ft 27 kts 179°
2026-04-30 19:36 35.38436 -97.59061 1294 ft 28 kts 180°
2026-04-30 19:36 35.38251 -97.59061 1294 ft 26 kts 179°
2026-04-30 19:36 35.37938 -97.59062 1291 ft 15 kts 180°
2026-04-30 19:37 35.37852 -97.59036 1292 ft 12 kts 134°
2026-04-30 19:37 35.37832 -97.58950 1292 ft 11 kts 82°
2026-04-30 19:37 35.37946 -97.58892 1291 ft 40 kts 360°
2026-04-30 19:37 35.38463 -97.58893 1292 ft 105 kts
2026-04-30 19:38 35.39379 -97.58887 1298 ft 156 kts
2026-04-30 19:38 35.40479 -97.58871 1881 ft 155 kts
2026-04-30 19:38 35.41584 -97.58788 2497 ft 161 kts 12°
2026-04-30 19:38 35.42675 -97.58474 3156 ft 162 kts 18°
2026-04-30 19:39 35.43825 -97.58079 3465 ft 183 kts 18°
2026-04-30 19:39 35.45123 -97.57630 3725 ft 205 kts 18°
2026-04-30 19:39 35.46586 -97.57138 4007 ft 230 kts 17°
2026-04-30 19:39 35.48190 -97.56612 4413 ft 252 kts 17°
2026-04-30 19:40 35.49869 -97.55906 5165 ft 258 kts 31°
2026-04-30 19:40 35.51213 -97.54445 5938 ft 262 kts 57°
2026-04-30 19:40 35.51935 -97.52402 6766 ft 263 kts 73°
2026-04-30 19:40 35.52494 -97.50236 7554 ft 268 kts 74°
2026-04-30 19:41 35.53057 -97.48020 8259 ft 275 kts 75°
2026-04-30 19:41 35.53631 -97.45750 9028 ft 281 kts 76°
2026-04-30 19:41 35.54219 -97.43424 9757 ft 288 kts 76°
2026-04-30 19:41 35.54823 -97.41046 10338 ft 300 kts 75°
2026-04-30 19:42 35.55468 -97.38503 10568 ft 323 kts 75°
2026-04-30 19:42 35.56158 -97.35796 10969 ft 339 kts 75°
2026-04-30 19:42 35.56874 -97.32998 11556 ft 347 kts 73°
2026-04-30 19:42 35.57607 -97.30141 12193 ft 354 kts 73°
2026-04-30 19:43 35.58350 -97.27233 12815 ft 361 kts 72°
2026-04-30 19:43 35.58852 -97.25268 13213 ft 366 kts 72°
2026-04-30 19:43 35.59620 -97.22252 13816 ft 373 kts 72°
2026-04-30 19:44 35.61197 -97.16060 14924 ft 385 kts 71°
2026-04-30 19:44 35.62000 -97.12897 15508 ft 390 kts 71°
2026-04-30 19:44 35.62811 -97.09695 16058 ft 396 kts 71°
2026-04-30 19:44 35.63633 -97.06446 16621 ft 401 kts 71°
2026-04-30 19:45 35.64462 -97.03155 17175 ft 406 kts 71°
2026-04-30 19:45 35.65301 -96.99822 17719 ft 411 kts 71°
2026-04-30 19:45 35.66195 -96.96474 18281 ft 415 kts 66°
2026-04-30 19:45 35.67460 -96.93281 18749 ft 417 kts 57°
2026-04-30 19:46 35.68905 -96.90169 19230 ft 421 kts 57°
2026-04-30 19:46 35.70367 -96.87015 19715 ft 425 kts 57°
2026-04-30 19:46 35.71840 -96.83838 20192 ft 430 kts 57°
2026-04-30 19:46 35.73326 -96.80636 20690 ft 434 kts 57°
2026-04-30 19:47 35.74827 -96.77393 21173 ft 438 kts 57°
2026-04-30 19:47 35.76337 -96.74119 21659 ft 442 kts 57°
2026-04-30 19:47 35.77858 -96.70810 22133 ft 446 kts 57°
2026-04-30 19:47 35.79391 -96.67467 22606 ft 450 kts 57°
2026-04-30 19:48 35.80941 -96.64100 23077 ft 454 kts 56°
2026-04-30 19:48 35.82552 -96.60722 23542 ft 458 kts 55°
2026-04-30 19:48 35.84213 -96.57343 23937 ft 462 kts 54°
2026-04-30 19:48 35.85901 -96.53962 24289 ft 466 kts 54°
2026-04-30 19:49 35.87594 -96.50581 24612 ft 471 kts 54°
2026-04-30 19:49 35.91065 -96.43574 25251 ft 481 kts 54°
2026-04-30 19:49 35.92802 -96.40022 25560 ft 486 kts 54°
2026-04-30 19:50 35.94523 -96.36477 25878 ft 490 kts 54°
2026-04-30 19:50 35.96279 -96.32850 26186 ft 494 kts 54°
2026-04-30 19:50 35.98046 -96.29192 26496 ft 498 kts 54°
2026-04-30 19:50 35.99832 -96.25505 26806 ft 502 kts 54°
2026-04-30 19:51 36.01639 -96.21783 27094 ft 506 kts 54°
2026-04-30 19:51 36.03455 -96.18040 27385 ft 510 kts 54°
2026-04-30 19:51 36.05281 -96.14273 27664 ft 514 kts 54°
2026-04-30 19:51 36.07126 -96.10460 27959 ft 517 kts 53°
2026-04-30 19:52 36.08978 -96.06626 28237 ft 521 kts 53°
2026-04-30 19:52 36.10845 -96.02760 28544 ft 526 kts 54°
2026-04-30 19:52 36.12724 -95.98859 28789 ft 530 kts 54°
2026-04-30 19:52 36.14613 -95.94935 29063 ft 534 kts 53°
2026-04-30 19:53 36.16519 -95.90974 29318 ft 538 kts 53°
2026-04-30 19:53 36.18441 -95.86973 29563 ft 541 kts 53°
2026-04-30 19:53 36.20365 -95.82959 29822 ft 545 kts 53°
2026-04-30 19:53 36.22300 -95.78906 30069 ft 548 kts 53°
2026-04-30 19:54 36.24249 -95.74828 30286 ft 552 kts 53°
2026-04-30 19:54 36.26211 -95.70726 30514 ft 554 kts 53°
2026-04-30 19:54 36.28177 -95.66615 30760 ft 555 kts 53°
2026-04-30 19:54 36.30142 -95.62500 31007 ft 556 kts 53°
2026-04-30 19:55 36.32109 -95.58363 31238 ft 557 kts 53°
2026-04-30 19:55 36.34075 -95.54218 31528 ft 557 kts 53°
2026-04-30 19:55 36.36035 -95.50080 31892 ft 555 kts 53°
2026-04-30 19:55 36.37962 -95.46009 32282 ft 553 kts 53°
2026-04-30 19:56 36.39911 -95.41894 32609 ft 553 kts 52°
2026-04-30 19:56 36.41859 -95.37787 32948 ft 551 kts 52°
2026-04-30 19:56 36.43805 -95.33683 33076 ft 550 kts 52°
2026-04-30 19:56 36.45697 -95.29669 33115 ft 539 kts 52°
2026-04-30 19:57 36.49421 -95.21737 33120 ft 533 kts 52°
2026-04-30 19:57 36.52827 -95.14504 33120 ft 532 kts 52°
2026-04-30 19:58 36.56571 -95.06549 33118 ft 532 kts 52°
2026-04-30 19:58 36.60296 -94.98591 33117 ft 532 kts 52°
2026-04-30 19:59 36.64012 -94.90620 33124 ft 532 kts 52°
2026-04-30 20:00 36.69586 -94.78629 33120 ft 533 kts 52°
2026-04-30 20:00 36.73280 -94.70686 33113 ft 534 kts 52°
2026-04-30 20:01 36.78844 -94.58649 33106 ft 534 kts 52°
2026-04-30 20:01 36.82546 -94.50612 33113 ft 534 kts 52°
2026-04-30 20:02 36.88104 -94.38553 33099 ft 534 kts 52°
2026-04-30 20:03 36.93660 -94.26411 33104 ft 536 kts 52°
2026-04-30 20:03 36.97366 -94.18317 33149 ft 536 kts 52°
2026-04-30 20:04 37.01058 -94.10219 33126 ft 536 kts 52°
2026-04-30 20:05 37.06584 -93.98046 33123 ft 536 kts 52°
2026-04-30 20:05 37.12068 -93.85912 33113 ft 535 kts 52°
2026-04-30 20:06 37.15740 -93.77781 33102 ft 535 kts 52°
2026-04-30 20:06 37.19402 -93.69650 33147 ft 535 kts 52°
2026-04-30 20:07 37.23054 -93.61513 33131 ft 535 kts 52°
2026-04-30 20:08 37.28520 -93.49301 33129 ft 534 kts 53°
2026-04-30 20:08 37.32153 -93.41155 33111 ft 534 kts 53°
2026-04-30 20:09 37.36014 -93.33425 33099 ft 508 kts 40°
2026-04-30 20:09 37.38352 -93.30198 32976 ft 493 kts 31°
2026-04-30 20:09 37.43390 -93.24415 32955 ft 490 kts 30°
2026-04-30 20:10 37.50893 -93.15713 32904 ft 489 kts 31°
2026-04-30 20:10 37.53400 -93.12789 33074 ft 494 kts 30°
2026-04-30 20:11 37.58515 -93.06847 33120 ft 502 kts 31°
2026-04-30 20:11 37.63658 -93.00846 33115 ft 503 kts 31°
2026-04-30 20:12 37.71313 -92.91879 33114 ft 501 kts 31°
2026-04-30 20:13 37.76422 -92.85880 33120 ft 501 kts 31°
2026-04-30 20:13 37.81529 -92.79879 33118 ft 501 kts 31°
2026-04-30 20:14 37.86622 -92.73886 33110 ft 500 kts 31°
2026-04-30 20:14 37.91481 -92.67482 33001 ft 515 kts 45°
2026-04-30 20:14 37.93526 -92.63786 32800 ft 508 kts 45°
2026-04-30 20:15 37.95520 -92.60120 32547 ft 503 kts 46°
2026-04-30 20:15 37.97485 -92.56471 32291 ft 500 kts 46°
2026-04-30 20:15 37.99433 -92.52836 32044 ft 497 kts 46°
2026-04-30 20:15 38.01368 -92.49215 31792 ft 495 kts 46°
2026-04-30 20:16 38.03298 -92.45614 31545 ft 492 kts 46°
2026-04-30 20:16 38.05223 -92.42034 31299 ft 490 kts 46°
2026-04-30 20:16 38.07141 -92.38472 31070 ft 488 kts 46°
2026-04-30 20:17 38.10963 -92.31376 31112 ft 487 kts 46°
2026-04-30 20:17 38.14778 -92.24270 31111 ft 487 kts 46°
2026-04-30 20:18 38.18590 -92.17146 31095 ft 488 kts 46°
2026-04-30 20:18 38.22397 -92.09983 31104 ft 488 kts 46°
2026-04-30 20:19 38.26198 -92.02821 31108 ft 488 kts 46°
2026-04-30 20:19 38.30003 -91.95664 31093 ft 488 kts 46°
2026-04-30 20:20 38.33803 -91.88492 31103 ft 489 kts 46°
2026-04-30 20:20 38.37593 -91.81306 31094 ft 489 kts 46°
2026-04-30 20:20 38.39487 -91.77708 30616 ft 488 kts 47°
2026-04-30 20:21 38.41371 -91.74119 29976 ft 485 kts 47°
2026-04-30 20:21 38.43232 -91.70569 29169 ft 478 kts 47°
2026-04-30 20:21 38.45062 -91.67071 28415 ft 470 kts 47°
2026-04-30 20:21 38.46862 -91.63631 27691 ft 462 kts 47°
2026-04-30 20:22 38.48630 -91.60248 27013 ft 454 kts 47°
2026-04-30 20:22 38.50372 -91.56917 26347 ft 446 kts 48°
2026-04-30 20:22 38.52078 -91.53661 25696 ft 438 kts 48°
2026-04-30 20:22 38.53761 -91.50445 25060 ft 430 kts 48°
2026-04-30 20:23 38.55403 -91.47302 24453 ft 422 kts 48°
2026-04-30 20:23 38.57019 -91.44206 23822 ft 415 kts 49°
2026-04-30 20:23 38.58584 -91.41204 23251 ft 405 kts 49°
2026-04-30 20:23 38.60134 -91.38226 22982 ft 401 kts 49°
2026-04-30 20:24 38.61698 -91.35240 22169 ft 398 kts 49°
2026-04-30 20:24 38.63218 -91.32346 21431 ft 394 kts 50°
2026-04-30 20:24 38.64737 -91.29453 20750 ft 389 kts 50°
2026-04-30 20:24 38.66236 -91.26599 20111 ft 384 kts 51°
2026-04-30 20:25 38.68775 -91.20667 18852 ft 379 kts 69°
2026-04-30 20:25 38.69407 -91.17399 18239 ft 376 kts 81°
2026-04-30 20:26 38.69663 -91.10877 16917 ft 368 kts 87°
2026-04-30 20:26 38.69820 -91.04374 15668 ft 359 kts 87°
2026-04-30 20:26 38.69872 -91.02268 15262 ft 356 kts 86°
2026-04-30 20:27 38.70030 -90.96012 14090 ft 347 kts 86°
2026-04-30 20:27 38.70183 -90.89936 13070 ft 330 kts 86°
2026-04-30 20:28 38.70313 -90.84292 12443 ft 309 kts 86°
2026-04-30 20:28 38.70433 -90.78839 11791 ft 307 kts 86°
2026-04-30 20:29 38.70554 -90.73386 11117 ft 305 kts 86°
2026-04-30 20:30 38.70862 -90.65137 10088 ft 311 kts 83°
2026-04-30 20:30 38.71246 -90.56996 9043 ft 302 kts 84°
2026-04-30 20:31 38.69907 -90.49408 8049 ft 293 kts 123°
2026-04-30 20:32 38.66683 -90.42900 7068 ft 284 kts 123°
2026-04-30 20:32 38.64603 -90.38684 6441 ft 276 kts 123°
2026-04-30 20:33 38.63584 -90.36622 6124 ft 272 kts 123°
2026-04-30 20:33 38.61589 -90.32596 5519 ft 264 kts 123°
2026-04-30 20:33 38.60616 -90.30627 5238 ft 260 kts 123°
2026-04-30 20:34 38.58760 -90.26852 4985 ft 237 kts 123°
2026-04-30 20:34 38.57626 -90.23083 4993 ft 233 kts 83°
2026-04-30 20:35 38.58208 -90.21227 4966 ft 221 kts 49°
2026-04-30 20:35 38.59375 -90.20024 4836 ft 212 kts 31°
2026-04-30 20:35 38.61919 -90.18222 4321 ft 209 kts 23°
2026-04-30 20:36 38.63344 -90.17753 3844 ft 215 kts
2026-04-30 20:36 38.64790 -90.17979 3636 ft 203 kts 340°
2026-04-30 20:36 38.66887 -90.19885 3208 ft 176 kts 303°
2026-04-30 20:37 38.67545 -90.21190 2972 ft 174 kts 300°
2026-04-30 20:37 38.68184 -90.22479 2761 ft 169 kts 299°
2026-04-30 20:37 38.68806 -90.23733 2529 ft 162 kts 300°
2026-04-30 20:37 38.69394 -90.24920 2315 ft 153 kts 298°
2026-04-30 20:38 38.69952 -90.26047 2116 ft 147 kts 298°
2026-04-30 20:38 38.70490 -90.27134 1924 ft 143 kts 298°
2026-04-30 20:38 38.71024 -90.28216 1735 ft 145 kts 300°
2026-04-30 20:39 38.72093 -90.30375 1306 ft 143 kts 301°
2026-04-30 20:39 38.72619 -90.31458 1125 ft 143 kts 301°
2026-04-30 20:39 38.73143 -90.32546 889 ft 143 kts 302°
2026-04-30 20:40 38.74200 -90.34642 537 ft 130 kts 302°
2026-04-30 20:40 38.74586 -90.35429 550 ft 79 kts 302°
2026-04-30 20:40 38.74790 -90.35840 560 ft 37 kts 303°
2026-04-30 20:41 38.74794 -90.36175 556 ft 17 kts 213°
2026-04-30 20:41 38.74754 -90.36209 548 ft 0 kts 212°
2026-04-30 20:41 38.74733 -90.36227 550 ft 9 kts 214°
2026-04-30 20:42 38.74664 -90.36287 545 ft 14 kts 214°
2026-04-30 20:42 38.74604 -90.36371 539 ft 13 kts 259°
2026-04-30 20:42 38.74513 -90.36539 538 ft 10 kts 194°
2026-04-30 20:43 38.74470 -90.36500 540 ft 6 kts 121°
2026-04-30 20:43 38.74452 -90.36453 541 ft 11 kts 116°
2026-04-30 20:43 38.74413 -90.36375 543 ft 0 kts 127°
2026-04-30 20:44 38.74405 -90.36362 543 ft 10 kts 127°
2026-04-30 20:44 38.74322 -90.36334 545 ft 12 kts 184°
2026-04-30 20:44 38.74282 -90.36333 546 ft 0 kts 177°